Hourly Weather Bolshie Lozicy

Today, 15 June, Tuesday

Time Temperature Precipitation Wind Pressure Humidity
00:00 +15°C° 0 mm 1 mps 744 mmHg 90%
01:00 +14°C° 0 mm 0 mps 744 mmHg 91%
02:00 +15°C° 0 mm 1 mps 744 mmHg 91%
03:00 +15°C° 0 mm 1 mps 744 mmHg 91%
04:00 +15°C° 0 mm 1 mps 744 mmHg 91%
05:00 +16°C° 0 mm 1 mps 744 mmHg 91%
06:00 +18°C° 0 mm 1 mps 744 mmHg 87%
07:00 +19°C° 0 mm 1 mps 744 mmHg 83%
08:00 +20°C° 0 mm 2 mps 744 mmHg 79%
09:00 +21°C° 0.1 mm 2 mps 744 mmHg 74%
10:00 +21°C° 0.1 mm 3 mps 744 mmHg 70%
11:00 +22°C° 0.1 mm 3 mps 744 mmHg 65%
12:00 +22°C° 0 mm 3 mps 744 mmHg 63%
13:00 +24°C° 0 mm 3 mps 744 mmHg 61%
14:00 +24°C° 0 mm 3 mps 743 mmHg 60%
15:00 +24°C° 0 mm 3 mps 743 mmHg 61%
16:00 +24°C° 0 mm 3 mps 743 mmHg 63%
17:00 +24°C° 0 mm 3 mps 742 mmHg 64%
18:00 +21°C° 0 mm 2 mps 742 mmHg 69%
19:00 +19°C° 0 mm 2 mps 742 mmHg 73%
20:00 +18°C° 0 mm 2 mps 742 mmHg 78%
21:00 +17°C° 0 mm 2 mps 742 mmHg 80%
22:00 +16°C° 0 mm 2 mps 742 mmHg 83%
23:00 +16°C° 0 mm 2 mps 742 mmHg 85%

Tomorrow, 16 June, Wednesday

Time Temperature Precipitation Wind Pressure Humidity
00:00 +15°C° 0 mm 2 mps 743 mmHg 88%
01:00 +15°C° 0 mm 2 mps 743 mmHg 92%
02:00 +14°C° 0 mm 3 mps 743 mmHg 95%
03:00 +15°C° 0 mm 2 mps 743 mmHg 95%
04:00 +15°C° 0 mm 2 mps 743 mmHg 95%
05:00 +15°C° 0 mm 2 mps 743 mmHg 96%
06:00 +16°C° 0 mm 3 mps 744 mmHg 90%
07:00 +18°C° 0 mm 3 mps 744 mmHg 85%
08:00 +19°C° 0 mm 4 mps 744 mmHg 80%
09:00 +20°C° 0 mm 4 mps 745 mmHg 73%
10:00 +21°C° 0 mm 4 mps 745 mmHg 67%
11:00 +22°C° 0 mm 3 mps 745 mmHg 61%
12:00 +22°C° 0 mm 4 mps 745 mmHg 59%
13:00 +22°C° 0 mm 4 mps 745 mmHg 58%
14:00 +22°C° 0 mm 4 mps 745 mmHg 57%
15:00 +22°C° 0 mm 4 mps 745 mmHg 60%
16:00 +22°C° 0 mm 4 mps 746 mmHg 62%
17:00 +21°C° 0 mm 3 mps 746 mmHg 65%
18:00 +20°C° 0 mm 3 mps 746 mmHg 69%
19:00 +18°C° 0 mm 3 mps 746 mmHg 74%
20:00 +17°C° 0 mm 2 mps 746 mmHg 78%
21:00 +16°C° 0 mm 3 mps 747 mmHg 78%
22:00 +14°C° 0 mm 3 mps 747 mmHg 77%
23:00 +13°C° 0 mm 3 mps 747 mmHg 76%

Day after tomorrow, 17 June, Thursday

Time Temperature Precipitation Wind Pressure Humidity
00:00 +12°C° 0 mm 3 mps 747 mmHg 77%
01:00 +12°C° 0 mm 3 mps 748 mmHg 77%
02:00 +12°C° 0 mm 2 mps 748 mmHg 78%
03:00 +12°C° 0 mm 2 mps 748 mmHg 79%
04:00 +12°C° 0 mm 2 mps 748 mmHg 81%
05:00 +12°C° 0 mm 2 mps 749 mmHg 82%
06:00 +15°C° 0 mm 2 mps 749 mmHg 77%
07:00 +17°C° 0 mm 2 mps 749 mmHg 72%
08:00 +19°C° 0 mm 2 mps 750 mmHg 68%
09:00 +20°C° 0 mm 2 mps 750 mmHg 64%
10:00 +21°C° 0 mm 3 mps 750 mmHg 60%
11:00 +24°C° 0 mm 3 mps 750 mmHg 56%
12:00 +24°C° 0 mm 3 mps 750 mmHg 55%
13:00 +24°C° 0 mm 3 mps 751 mmHg 53%
14:00 +25°C° 0 mm 3 mps 751 mmHg 52%
15:00 +25°C° 0 mm 3 mps 750 mmHg 55%
16:00 +25°C° 0 mm 2 mps 750 mmHg 59%
17:00 +24°C° 0 mm 2 mps 750 mmHg 62%
18:00 +23°C° 0 mm 2 mps 750 mmHg 67%
19:00 +20°C° 0 mm 2 mps 750 mmHg 73%
20:00 +18°C° 0 mm 2 mps 750 mmHg 78%
21:00 +17°C° 0 mm 2 mps 751 mmHg 79%
22:00 +16°C° 0 mm 2 mps 751 mmHg 80%
23:00 +15°C° 0 mm 2 mps 751 mmHg 81%

18 June, Friday

Time Temperature Precipitation Wind Pressure Humidity
00:00 +15°C° 0 mm 2 mps 751 mmHg 82%
01:00 +14°C° 0 mm 2 mps 751 mmHg 84%
02:00 +14°C° 0 mm 2 mps 751 mmHg 85%
03:00 +14°C° 0 mm 2 mps 751 mmHg 85%
04:00 +14°C° 0 mm 2 mps 751 mmHg 86%
05:00 +15°C° 0 mm 2 mps 752 mmHg 86%
06:00 +17°C° 0 mm 2 mps 752 mmHg 81%
07:00 +18°C° 0 mm 2 mps 752 mmHg 76%
08:00 +20°C° 0 mm 3 mps 752 mmHg 71%
09:00 +21°C° 0 mm 3 mps 752 mmHg 67%
10:00 +22°C° 0 mm 3 mps 752 mmHg 62%
11:00 +24°C° 0 mm 3 mps 752 mmHg 58%
12:00 +25°C° 0 mm 3 mps 752 mmHg 57%
13:00 +25°C° 0 mm 3 mps 752 mmHg 55%
14:00 +25°C° 0 mm 3 mps 752 mmHg 54%
15:00 +25°C° 0 mm 3 mps 752 mmHg 56%
16:00 +25°C° 0 mm 3 mps 751 mmHg 59%
17:00 +25°C° 0 mm 2 mps 751 mmHg 62%
18:00 +24°C° 0 mm 2 mps 751 mmHg 68%
19:00 +21°C° 0 mm 2 mps 751 mmHg 74%
20:00 +19°C° 0 mm 2 mps 751 mmHg 80%
21:00 +18°C° 0 mm 2 mps 751 mmHg 82%
22:00 +17°C° 0 mm 2 mps 751 mmHg 84%
23:00 +16°C° 0 mm 2 mps 751 mmHg 86%

19 June, Saturday

Time Temperature Precipitation Wind Pressure Humidity
00:00 +16°C° 0 mm 2 mps 751 mmHg 88%
01:00 +15°C° 0 mm 2 mps 752 mmHg 89%
02:00 +15°C° 0 mm 2 mps 752 mmHg 91%
03:00 +15°C° 0 mm 2 mps 752 mmHg 90%
04:00 +15°C° 0 mm 2 mps 752 mmHg 90%
05:00 +16°C° 0 mm 2 mps 752 mmHg 90%
06:00 +17°C° 0 mm 2 mps 752 mmHg 85%
07:00 +19°C° 0 mm 3 mps 752 mmHg 80%
08:00 +21°C° 0 mm 3 mps 752 mmHg 75%
09:00 +22°C° 0 mm 3 mps 752 mmHg 71%
10:00 +24°C° 0 mm 3 mps 752 mmHg 67%
11:00 +25°C° 0 mm 3 mps 752 mmHg 63%
12:00 +25°C° 0 mm 3 mps 752 mmHg 62%
13:00 +26°C° 0 mm 3 mps 751 mmHg 60%
14:00 +26°C° 0 mm 3 mps 751 mmHg 58%
15:00 +26°C° 0 mm 3 mps 751 mmHg 60%
16:00 +26°C° 0 mm 3 mps 751 mmHg 62%
17:00 +26°C° 0 mm 2 mps 751 mmHg 64%
18:00 +25°C° 0 mm 2 mps 750 mmHg 69%
19:00 +23°C° 0 mm 2 mps 750 mmHg 75%
20:00 +20°C° 0 mm 2 mps 750 mmHg 81%
21:00 +19°C° 0 mm 2 mps 750 mmHg 83%
22:00 +18°C° 0 mm 2 mps 750 mmHg 85%
23:00 +17°C° 0 mm 2 mps 750 mmHg 87%

20 June, Sunday

Time Temperature Precipitation Wind Pressure Humidity
00:00 +17°C° 0 mm 2 mps 751 mmHg 88%
01:00 +16°C° 0 mm 2 mps 751 mmHg 89%
02:00 +16°C° 0 mm 2 mps 751 mmHg 90%
03:00 +16°C° 0 mm 2 mps 751 mmHg 90%
04:00 +16°C° 0 mm 2 mps 751 mmHg 90%
05:00 +17°C° 0 mm 2 mps 751 mmHg 90%
06:00 +18°C° 0 mm 2 mps 751 mmHg 85%
07:00 +20°C° 0 mm 2 mps 751 mmHg 79%
08:00 +23°C° 0 mm 2 mps 751 mmHg 74%
09:00 +24°C° 0 mm 2 mps 750 mmHg 70%
10:00 +25°C° 0 mm 3 mps 750 mmHg 66%
11:00 +26°C° 0 mm 3 mps 750 mmHg 62%
12:00 +26°C° 0 mm 3 mps 750 mmHg 60%
13:00 +27°C° 0 mm 3 mps 750 mmHg 58%
14:00 +27°C° 0 mm 3 mps 749 mmHg 55%
15:00 +27°C° 0 mm 2 mps 749 mmHg 58%
16:00 +27°C° 0 mm 2 mps 749 mmHg 61%
17:00 +27°C° 0 mm 2 mps 749 mmHg 64%
18:00 +25°C° 0 mm 2 mps 749 mmHg 70%
19:00 +24°C° 0 mm 2 mps 749 mmHg 75%
20:00 +21°C° 0 mm 2 mps 749 mmHg 81%
21:00 +20°C° 0 mm 2 mps 749 mmHg 83%
22:00 +19°C° 0 mm 2 mps 749 mmHg 86%
23:00 +18°C° 0 mm 2 mps 749 mmHg 88%
Show more